Location: Hains Lake
(37.8540°N, 99.8578°W)
Time: 00:43:24
(UTC+00:00)

STARLINK 1051 - Pass Details

Date: 11 December 2019
Orbit: 348 x 351 km, 53.0° (Epoch: 26 January)

Event Time Altitude Azimuth Distance (km) Brightness Sun altitude
Exits shadow 11:22:26 14° 72° (ENE) 1,133 5.9 -27.3°
Drops below altitude 10° 11:23:12 10° 84° (E) 1,357 6.5 -27.1°
Enters shadow 12:18:43 -70° 310° (NW) 12,393 10.4 -16.5°
Maximum altitude 12:56:17 32° 228° (SW) 648 3.8 -9.5°
